GFSNE_sfc_vis_225.txt.gz
Visibility
15.0 15.0 15.0 15.0 15.0 15.0 15.0 15.0 11.9 14.8 15.0 15.0 15.0 15.0 15.0 15.0 15.0 15.0 15.0 15.0 15.0 15.0 15.0 15.0 15.0 15.0 15.0 15.0 15.0 15.0 15.0 15.0 15.0 14.0 14.2 14.9 9.3 4.1
15.0 15.0 15.0 15.0 15.0 15.0 15.0 15.0 15.0 15.0 9.0 15.0 15.0 15.0 15.0 15.0 15.0 15.0 15.0 15.0 15.0 15.0 15.0 15.0 15.0 15.0 15.0 15.0 11.9 9.0 15.0 15.0 15.0 8.0 11.7 15.0 7.0 15.0
15.0 15.0 15.0 15.0 15.0 15.0 15.0 15.0 15.0 15.0 9.5 15.0 15.0 15.0 15.0 15.0 15.0 15.0 15.0 15.0 15.0 15.0 15.0 15.0 15.0 15.0 15.0 15.0 15.0 2.2 15.0 15.0 15.0 15.0 11.8 15.0 13.6 15.0
15.0 15.0 15.0 15.0 15.0 15.0 15.0 15.0 15.0 15.0 7.9 1.1 15.0 15.0 15.0 15.0 15.0 15.0 15.0 15.0 15.0 15.0 15.0 15.0 15.0 15.0 15.0 15.0 0.2 14.8 15.0 15.0 3.4 11.2 14.9 9.5 10.2 5.1
15.0 15.0 15.0 15.0 15.0 15.0 15.0 15.0 15.0 15.0 15.0 15.0 9.7 15.0 15.0 15.0 15.0 15.0 15.0 15.0 15.0 15.0 15.0 15.0 15.0 15.0 15.0 14.8 0.1 10.6 14.8 3.2 15.0 0.6 3.7 2.7 3.8 3.2
15.0 15.0 15.0 15.0 15.0 15.0 15.0 15.0 15.0 15.0 15.0 15.0 8.2 8.0 10.3 14.5 14.2 0.3 0.1 15.0 0.4 11.8 15.0 15.0 15.0 15.0 15.0 0.7 0.1 0.4 0.2 0.0 0.1 0.2 12.8 9.2 12.0 4.1
15.0 15.0 15.0 15.0 15.0 15.0 15.0 15.0 15.0 3.8 0.3 0.1 0.1 0.1 0.2 2.2 0.1 0.3 0.0 0.0 0.0 0.2 15.0 15.0 15.0 6.4 1.5 0.2 0.2 0.4 3.9 0.1 0.1 0.4 7.1 10.7 0.9 6.0
15.0 15.0 15.0 15.0 15.0 15.0 15.0 15.0 15.0 2.5 0.1 0.0 0.0 0.0 0.0 0.0 0.0 0.0 0.0 0.0 0.0 0.1 2.2 15.0 10.4 0.5 0.1 0.1 0.2 0.1 0.1 0.1 0.1 0.2 0.2 0.5 0.3 3.5
15.0 15.0 15.0 15.0 15.0 15.0 15.0 15.0 15.0 15.0 10.0 0.1 0.0 0.0 0.0 0.0 0.0 0.0 0.0 0.0 0.0 0.2 0.1 14.5 15.0 0.4 12.5 0.3 0.2 0.1 0.4 0.1 0.2 0.2 0.4 0.9 3.6 3.6
15.0 15.0 15.0 15.0 15.0 15.0 15.0 15.0 15.0 15.0 7.3 0.1 0.1 0.0 0.0 0.1 0.0 0.0 0.0 0.1 0.1 1.9 0.0 2.0 8.6 3.8 15.0 0.2 0.3 0.3 15.0 1.9 4.1 4.3 3.9 3.2 3.5 5.6
15.0 15.0 15.0 15.0 15.0 15.0 15.0 15.0 15.0 15.0 15.0 15.0 14.9 9.7 0.1 0.1 0.4 0.0 0.0 0.0 2.5 1.8 0.4 6.2 0.4 0.5 15.0 0.5 0.1 7.4 4.0 7.3 2.3 2.8 3.5 7.2 4.9 3.4
15.0 15.0 15.0 15.0 15.0 15.0 15.0 15.0 0.2 14.2 0.3 0.2 1.5 0.2 0.0 0.0 0.1 0.1 0.2 1.2 0.5 1.0 0.1 0.8 1.7 0.7 4.3 0.2 0.1 0.0 0.1 3.4 12.0 5.3 4.3 3.6 3.5 0.1
15.0 15.0 12.6 15.0 15.0 15.0 15.0 15.0 10.2 15.0 14.8 10.1 0.2 0.0 0.0 0.0 0.0 0.0 0.1 0.7 4.6 4.0 0.0 0.0 14.1 12.4 6.3 0.2 0.1 0.1 0.0 0.1 0.3 0.1 2.2 3.6 3.3 2.9
9.9 12.5 9.5 15.0 15.0 15.0 15.0 15.0 15.0 15.0 15.0 0.2 0.1 0.0 0.0 0.0 0.0 0.0 0.0 0.0 0.0 0.0 0.0 0.0 0.7 4.9 15.0 1.5 0.1 0.1 0.1 0.1 0.1 0.1 0.1 0.0 0.0 0.1
15.0 15.0 15.0 15.0 15.0 15.0 15.0 15.0 15.0 15.0 15.0 15.0 0.6 0.2 0.4 0.8 5.7 11.9 13.5 13.5 0.1 0.0 0.1 15.0 10.0 0.1 0.1 0.3 0.2 0.1 0.1 0.1 0.1 0.1 0.1 0.1 0.1 0.7
15.0 15.0 15.0 15.0 15.0 15.0 15.0 15.0 15.0 15.0 5.3 8.3 0.4 4.8 14.0 8.5 0.6 13.8 11.1 12.6 1.4 0.8 5.1 15.0 15.0 15.0 0.3 0.2 0.3 0.1 0.1 0.1 0.1 0.1 0.1 0.1 0.1 0.1
15.0 15.0 15.0 15.0 15.0 11.0 15.0 15.0 15.0 15.0 15.0 7.7 0.4 7.5 8.5 7.9 4.8 11.1 14.2 15.0 12.6 0.2 0.3 0.2 0.2 0.7 0.1 0.3 0.1 0.1 0.1 0.1 0.1 0.1 0.2 0.1 0.1 0.1
15.0 15.0 12.7 14.2 0.3 0.3 4.8 15.0 15.0 15.0 15.0 15.0 15.0 2.9 0.4 8.3 9.4 14.5 14.5 10.5 10.3 6.2 0.2 0.1 0.1 0.2 0.2 0.1 0.2 0.1 0.1 0.1 0.1 0.1 0.1 0.3 0.1 0.1
15.0 15.0 15.0 15.0 14.1 13.7 1.0 0.1 0.1 0.6 14.8 15.0 10.7 0.2 6.8 9.2 9.4 10.1 10.5 13.3 7.1 8.3 1.0 0.1 0.1 0.1 0.2 0.2 0.1 0.1 0.1 0.1 0.1 0.1 0.1 0.1 0.2 1.4
15.0 10.4 8.9 15.0 15.0 15.0 15.0 15.0 3.9 15.0 15.0 15.0 15.0 12.6 2.7 7.8 7.8 6.4 9.0 6.8 7.4 8.2 3.5 0.4 0.2 0.1 0.1 0.1 0.2 0.1 0.2 0.2 0.1 0.1 0.1 0.1 0.2 0.2
9.0 9.6 13.0 11.0 10.9 15.0 15.0 15.0 15.0 15.0 15.0 15.0 15.0 8.9 0.1 7.6 7.3 7.1 2.7 1.9 7.5 14.1 6.4 0.2 0.1 0.1 0.1 0.2 0.1 0.1 0.1 0.1 1.3 2.2 0.1 0.9 0.3 0.1
0.4 2.2 3.4 3.6 7.8 7.3 11.5 15.0 15.0 15.0 15.0 15.0 8.4 4.4 1.0 6.6 6.2 6.5 7.5 9.2 0.5 0.6 0.4 0.1 0.1 0.2 0.2 0.5 0.1 0.1 0.1 0.1 0.1 0.1 4.2 11.0 3.0 0.3
2.6 2.7 1.0 6.0 2.8 3.0 11.4 9.7 10.5 6.6 12.2 15.0 15.0 13.9 0.8 0.3 6.1 7.2 8.4 14.9 1.2 0.3 0.2 0.1 0.1 0.2 0.1 0.3 0.4 0.1 0.1 0.1 0.1 0.1 0.1 0.3 0.2 12.3

GFSNE_sfc_vis_228.txt.gz
Visibility
15.0 15.0 15.0 15.0 15.0 15.0 15.0 15.0 15.0 15.0 15.0 15.0 15.0 15.0 15.0 15.0 15.0 15.0 15.0 15.0 15.0 15.0 15.0 15.0 15.0 15.0 15.0 15.0 15.0 15.0 15.0 15.0 14.1 15.0 15.0 15.0 15.0 13.1
15.0 15.0 15.0 15.0 15.0 15.0 15.0 15.0 15.0 15.0 15.0 15.0 15.0 15.0 15.0 15.0 15.0 15.0 15.0 15.0 15.0 15.0 15.0 15.0 15.0 15.0 15.0 15.0 15.0 15.0 15.0 15.0 15.0 15.0 15.0 10.4 15.0 15.0
15.0 15.0 15.0 15.0 15.0 15.0 15.0 15.0 15.0 15.0 1.6 15.0 15.0 15.0 15.0 15.0 15.0 15.0 15.0 15.0 15.0 15.0 15.0 15.0 15.0 15.0 15.0 15.0 15.0 15.0 15.0 15.0 15.0 15.0 15.0 6.5 7.9 6.0
15.0 15.0 15.0 15.0 15.0 15.0 15.0 15.0 15.0 15.0 15.0 15.0 15.0 15.0 15.0 15.0 15.0 15.0 15.0 15.0 15.0 15.0 15.0 15.0 15.0 15.0 15.0 15.0 15.0 15.0 15.0 15.0 15.0 15.0 2.0 15.0 7.7 8.1
15.0 15.0 15.0 15.0 15.0 15.0 15.0 15.0 15.0 15.0 15.0 15.0 15.0 15.0 15.0 15.0 15.0 15.0 15.0 15.0 15.0 15.0 15.0 15.0 15.0 15.0 15.0 15.0 15.0 15.0 11.9 13.9 12.3 15.0 12.6 0.3 8.1 15.0
15.0 15.0 15.0 15.0 15.0 15.0 15.0 15.0 15.0 15.0 15.0 12.3 2.8 1.0 5.4 14.0 14.0 0.1 0.1 7.9 0.4 11.7 15.0 15.0 15.0 15.0 15.0 15.0 15.0 15.0 0.2 8.3 0.8 0.1 0.1 0.1 11.4 15.0
15.0 15.0 15.0 15.0 15.0 15.0 15.0 15.0 15.0 15.0 15.0 0.1 0.1 0.1 0.0 0.1 0.0 0.0 0.0 0.0 0.0 0.1 15.0 15.0 15.0 15.0 15.0 15.0 15.0 4.8 0.2 0.4 4.6 8.8 0.1 0.1 0.1 0.3
15.0 15.0 15.0 15.0 15.0 15.0 15.0 15.0 15.0 15.0 1.4 0.1 0.1 0.0 0.0 0.0 0.0 0.0 0.0 0.0 0.0 0.1 0.2 14.8 15.0 15.0 15.0 15.0 15.0 1.7 0.3 0.1 0.3 0.1 0.1 0.1 0.1 0.1
15.0 15.0 15.0 15.0 15.0 15.0 15.0 15.0 15.0 15.0 15.0 0.5 0.0 0.0 0.0 0.0 0.0 0.0 0.0 0.0 0.0 0.2 0.1 0.4 15.0 15.0 15.0 15.0 8.2 0.2 0.1 0.1 0.1 0.1 0.1 0.1 0.1 0.2
15.0 15.0 15.0 15.0 15.0 15.0 15.0 15.0 15.0 15.0 15.0 15.0 0.1 0.0 0.1 0.1 0.0 0.0 0.0 0.0 0.0 2.8 3.1 13.0 7.1 15.0 15.0 15.0 0.2 2.5 8.8 0.1 0.1 0.1 0.2 0.3 2.1 6.0
15.0 15.0 15.0 15.0 15.0 15.0 15.0 15.0 15.0 15.0 15.0 15.0 15.0 15.0 2.1 0.1 0.2 0.1 0.0 0.0 4.1 15.0 0.1 0.1 0.2 13.2 15.0 15.0 15.0 14.9 15.0 12.4 9.8 10.5 10.1 4.4 4.6 2.8
15.0 15.0 15.0 15.0 15.0 15.0 15.0 15.0 14.4 15.0 15.0 0.9 1.5 0.1 0.0 0.0 0.0 0.0 0.0 0.1 0.6 7.1 0.2 0.1 14.5 2.2 15.0 15.0 0.2 0.1 1.7 3.3 4.4 3.4 6.7 9.4 6.3 3.0
15.0 15.0 12.3 15.0 15.0 15.0 15.0 15.0 3.7 15.0 15.0 0.2 0.1 0.0 0.0 0.0 0.0 0.0 0.0 0.0 0.1 2.8 0.0 0.1 13.7 15.0 15.0 4.5 0.1 0.1 0.1 0.0 0.0 0.1 1.0 2.4 3.3 3.8
5.3 15.0 0.5 15.0 15.0 15.0 15.0 15.0 15.0 15.0 15.0 15.0 15.0 15.0 9.3 5.9 0.9 0.5 6.7 0.0 0.0 0.0 0.1 0.1 14.0 15.0 15.0 7.1 0.5 4.5 1.3 0.1 0.1 0.1 0.1 0.3 0.1 0.6
15.0 15.0 15.0 15.0 15.0 15.0 15.0 15.0 15.0 15.0 15.0 15.0 11.8 14.9 1.3 7.2 14.6 15.0 15.0 15.0 15.0 3.0 0.3 15.0 15.0 15.0 15.0 14.6 0.6 0.5 0.2 0.1 0.1 0.1 0.1 0.1 0.1 0.2
15.0 15.0 15.0 15.0 15.0 15.0 15.0 15.0 15.0 15.0 15.0 6.4 1.4 6.2 15.0 1.5 2.4 15.0 15.0 15.0 15.0 15.0 1.7 0.6 13.9 15.0 0.3 0.3 0.4 0.1 0.1 0.1 0.1 0.1 0.1 0.1 0.1 0.1
15.0 15.0 15.0 15.0 15.0 15.0 15.0 15.0 15.0 15.0 15.0 6.3 1.8 0.2 13.0 15.0 15.0 15.0 15.0 15.0 11.1 7.5 6.6 0.7 0.1 0.3 0.3 0.3 0.1 0.1 0.1 0.1 0.1 0.1 0.6 0.2 0.1 0.1
15.0 15.0 15.0 15.0 5.0 0.3 5.7 9.2 15.0 15.0 15.0 15.0 15.0 0.9 0.3 15.0 15.0 15.0 15.0 15.0 4.7 9.1 10.3 4.4 0.6 0.1 0.2 0.1 0.2 0.1 0.1 0.1 0.1 0.1 0.1 0.4 0.1 0.1
15.0 15.0 13.4 15.0 14.9 6.1 0.6 0.2 15.0 15.0 15.0 15.0 15.0 0.1 10.2 15.0 14.6 15.0 15.0 15.0 9.4 11.7 3.3 7.7 14.9 1.7 0.1 0.1 0.1 0.1 0.1 0.1 0.1 0.1 0.1 0.1 0.2 0.5
15.0 15.0 15.0 15.0 15.0 15.0 15.0 15.0 15.0 15.0 15.0 15.0 15.0 14.8 2.0 15.0 0.2 5.6 15.0 15.0 15.0 14.8 13.1 15.0 14.3 1.0 0.2 0.1 0.1 0.1 0.1 0.1 0.2 0.1 0.1 0.1 1.3 11.1
8.5 1.4 4.9 8.9 8.7 15.0 15.0 15.0 15.0 15.0 15.0 15.0 15.0 12.6 0.1 8.2 7.3 12.7 0.2 5.6 9.9 15.0 13.5 6.7 0.3 0.2 0.1 0.2 0.2 0.1 0.1 0.1 0.2 0.9 0.9 0.7 0.3 0.1
6.3 8.0 4.9 7.2 12.8 13.7 15.0 14.9 15.0 15.0 15.0 15.0 14.1 4.8 0.4 15.0 10.8 11.7 15.0 15.0 14.1 11.8 1.6 1.3 0.6 0.2 0.2 0.7 0.1 0.1 0.1 0.1 0.1 0.2 0.8 7.8 5.9 0.2
2.5 4.7 2.1 2.8 3.9 13.2 15.0 15.0 13.7 10.3 14.9 15.0 15.0 12.1 1.8 0.1 12.7 15.0 15.0 15.0 15.0 15.0 15.0 2.3 1.1 1.3 0.1 0.2 0.2 0.1 0.1 0.1 0.1 0.1 0.1 0.2 9.4 15.0

GFSNE_sfc_vis_231.txt.gz
Visibility
15.0 6.6 15.0 15.0 15.0 15.0 15.0 15.0 15.0 15.0 15.0 15.0 15.0 15.0 15.0 15.0 15.0 15.0 15.0 15.0 15.0 15.0 15.0 15.0 15.0 15.0 15.0 15.0 15.0 15.0 15.0 15.0 15.0 15.0 15.0 15.0 15.0 15.0
14.6 15.0 15.0 15.0 15.0 15.0 15.0 15.0 15.0 15.0 15.0 15.0 15.0 15.0 15.0 15.0 15.0 15.0 15.0 15.0 15.0 15.0 15.0 15.0 15.0 15.0 15.0 15.0 15.0 15.0 15.0 15.0 15.0 15.0 15.0 15.0 15.0 15.0
15.0 15.0 15.0 15.0 15.0 15.0 15.0 15.0 15.0 15.0 15.0 15.0 15.0 15.0 15.0 15.0 15.0 15.0 15.0 15.0 15.0 15.0 15.0 15.0 15.0 15.0 15.0 15.0 15.0 15.0 15.0 15.0 15.0 15.0 15.0 15.0 10.2 15.0
15.0 15.0 15.0 15.0 15.0 15.0 15.0 15.0 15.0 15.0 15.0 15.0 15.0 15.0 15.0 15.0 15.0 15.0 15.0 15.0 15.0 15.0 15.0 15.0 15.0 15.0 15.0 15.0 15.0 15.0 15.0 15.0 15.0 15.0 15.0 15.0 15.0 5.5
15.0 15.0 15.0 15.0 15.0 15.0 15.0 15.0 15.0 15.0 15.0 15.0 15.0 15.0 15.0 15.0 15.0 15.0 15.0 15.0 15.0 15.0 15.0 15.0 15.0 15.0 15.0 15.0 15.0 15.0 15.0 15.0 15.0 15.0 12.0 12.5 7.7 0.7
15.0 15.0 15.0 15.0 15.0 15.0 15.0 15.0 15.0 15.0 15.0 15.0 14.9 15.0 15.0 15.0 14.9 0.1 0.0 0.1 12.6 15.0 15.0 15.0 15.0 15.0 15.0 15.0 15.0 15.0 15.0 9.3 9.4 15.0 0.5 0.5 0.1 0.1
15.0 15.0 15.0 15.0 15.0 15.0 15.0 15.0 15.0 15.0 15.0 14.3 3.5 0.1 0.1 0.0 0.0 0.0 0.0 0.1 12.2 0.3 4.3 15.0 15.0 15.0 15.0 15.0 15.0 15.0 15.0 15.0 6.7 15.0 15.0 5.8 0.1 0.1
15.0 15.0 15.0 15.0 15.0 15.0 15.0 15.0 15.0 15.0 15.0 12.2 11.1 0.0 0.0 0.0 0.0 0.0 0.0 0.0 0.0 0.0 0.1 14.8 15.0 15.0 15.0 15.0 15.0 15.0 1.3 15.0 14.8 0.2 15.0 11.2 0.1 0.1
15.0 15.0 15.0 15.0 15.0 15.0 15.0 15.0 15.0 15.0 15.0 15.0 0.1 0.1 0.0 0.1 0.0 0.0 0.0 0.0 0.0 0.1 11.5 0.8 15.0 15.0 15.0 15.0 15.0 15.0 14.8 2.8 0.1 0.0 0.1 0.1 0.1 0.1
15.0 15.0 15.0 15.0 15.0 15.0 15.0 15.0 15.0 15.0 15.0 15.0 14.2 1.8 0.2 0.2 0.1 0.1 0.0 0.0 0.0 0.3 15.0 0.1 0.1 0.0 15.0 15.0 15.0 4.7 5.5 0.2 0.1 0.1 0.1 0.1 0.2 3.3
0.0 15.0 15.0 15.0 15.0 15.0 15.0 2.7 2.7 0.0 15.0 15.0 15.0 15.0 9.1 0.2 0.1 0.0 0.0 0.0 0.1 0.0 0.0 0.0 0.1 0.3 0.0 15.0 15.0 15.0 0.1 6.0 0.5 0.1 2.3 1.9 14.2 5.1
13.4 4.5 15.0 15.0 15.0 15.0 15.0 15.0 0.0 0.0 0.0 0.0 0.0 0.0 0.0 0.0 0.0 0.0 0.0 0.0 0.0 0.0 0.0 0.0 0.5 0.3 0.0 1.9 15.0 15.0 15.0 0.1 0.6 5.8 14.6 14.9 7.3 3.5
15.0 2.9 15.0 15.0 15.0 15.0 15.0 0.0 0.0 0.0 0.0 0.0 0.0 0.0 0.0 0.0 0.0 0.0 0.0 0.0 0.0 0.0 0.0 0.0 1.0 0.1 8.4 0.8 0.3 2.1 7.6 8.9 0.1 0.0 1.1 4.9 4.9 5.7
0.1 3.4 0.4 15.0 15.0 15.0 15.0 15.0 15.0 4.3 0.0 0.0 0.0 0.0 0.1 0.5 2.9 0.0 0.0 0.0 0.0 0.0 0.0 0.1 0.0 4.4 14.2 14.7 7.3 6.6 0.2 0.1 0.1 0.1 0.0 0.0 0.0 0.7
15.0 0.5 10.0 15.0 15.0 15.0 15.0 15.0 15.0 15.0 10.9 14.7 13.8 2.0 14.5 13.5 0.1 0.0 0.5 13.4 9.9 6.6 6.3 0.6 0.3 0.0 15.0 15.0 2.8 1.2 0.3 0.1 0.1 0.1 0.1 0.1 0.1 0.1
15.0 15.0 15.0 15.0 15.0 15.0 15.0 15.0 14.7 8.8 14.6 13.9 15.0 15.0 15.0 15.0 15.0 15.0 15.0 15.0 14.8 15.0 15.0 15.0 11.8 10.0 0.3 13.6 15.0 2.3 2.9 0.2 0.1 0.1 0.1 0.1 0.1 0.1
6.2 8.7 14.0 14.4 13.8 10.6 15.0 15.0 15.0 15.0 10.4 8.7 15.0 15.0 15.0 15.0 15.0 15.0 15.0 15.0 15.0 15.0 15.0 15.0 14.9 12.3 1.0 0.2 0.3 0.4 0.1 0.3 0.1 0.1 0.3 0.1 0.1 0.1
15.0 15.0 9.8 7.1 10.0 11.7 15.0 15.0 15.0 15.0 15.0 13.9 14.9 15.0 15.0 15.0 15.0 15.0 15.0 15.0 15.0 15.0 15.0 15.0 15.0 12.3 9.6 0.2 0.1 0.1 0.1 0.1 0.1 0.1 0.2 1.1 0.1 0.1
15.0 15.0 14.3 6.5 9.3 9.9 15.0 15.0 15.0 15.0 15.0 15.0 15.0 15.0 15.0 15.0 15.0 15.0 15.0 14.9 12.6 14.9 15.0 15.0 14.5 12.2 3.0 0.5 0.1 0.1 0.2 0.1 0.1 0.1 0.2 0.2 0.2 0.2
15.0 15.0 13.3 15.0 15.0 15.0 15.0 15.0 15.0 15.0 15.0 15.0 15.0 15.0 8.6 13.9 15.0 14.5 13.1 11.8 12.8 12.6 14.8 15.0 14.5 13.8 13.8 0.6 0.2 0.1 0.1 0.1 0.2 0.2 0.1 0.2 0.4 13.9
15.0 15.0 15.0 15.0 15.0 15.0 15.0 15.0 8.3 15.0 15.0 15.0 14.4 15.0 0.2 15.0 15.0 14.6 9.8 15.0 15.0 13.6 13.7 14.9 2.5 13.5 14.5 14.1 0.3 0.1 0.1 0.1 0.2 0.9 1.2 3.2 1.2 5.9
15.0 12.9 13.7 15.0 15.0 15.0 15.0 12.9 14.2 12.4 14.7 13.1 4.4 9.3 0.3 10.3 12.5 11.6 8.3 9.5 11.3 12.9 15.0 13.5 5.0 7.1 4.3 13.3 0.2 0.1 0.1 0.1 0.1 0.1 0.1 1.5 3.6 0.2
15.0 15.0 14.9 9.4 15.0 15.0 15.0 15.0 15.0 14.9 15.0 15.0 15.0 12.5 2.2 1.0 13.7 12.6 11.9 13.1 13.2 11.9 14.2 15.0 7.1 9.0 0.8 0.8 0.8 0.2 0.1 0.1 0.2 0.1 0.1 0.4 14.9 6.1

GFSNE_sfc_vis_237.txt.gz
Visibility
15.0 15.0 15.0 15.0 15.0 15.0 15.0 15.0 15.0 15.0 15.0 15.0 15.0 15.0 15.0 15.0 15.0 15.0 15.0 15.0 15.0 15.0 15.0 15.0 15.0 15.0 15.0 15.0 15.0 15.0 15.0 15.0 15.0 15.0 15.0 15.0 15.0 15.0
15.0 15.0 15.0 11.8 15.0 15.0 15.0 15.0 15.0 15.0 14.6 15.0 15.0 15.0 15.0 15.0 15.0 15.0 15.0 15.0 15.0 15.0 15.0 15.0 15.0 15.0 15.0 15.0 15.0 15.0 15.0 15.0 15.0 15.0 15.0 15.0 15.0 15.0
15.0 15.0 15.0 15.0 15.0 15.0 15.0 13.2 13.6 15.0 15.0 15.0 15.0 15.0 15.0 15.0 15.0 15.0 15.0 15.0 15.0 15.0 15.0 15.0 15.0 15.0 15.0 15.0 15.0 15.0 15.0 15.0 15.0 15.0 15.0 15.0 15.0 15.0
15.0 15.0 15.0 15.0 15.0 15.0 15.0 15.0 15.0 15.0 15.0 15.0 15.0 15.0 15.0 15.0 15.0 15.0 15.0 15.0 15.0 15.0 15.0 15.0 15.0 15.0 15.0 15.0 15.0 15.0 15.0 15.0 15.0 15.0 15.0 15.0 15.0 15.0
12.7 15.0 15.0 15.0 15.0 15.0 15.0 15.0 15.0 15.0 15.0 15.0 15.0 15.0 15.0 15.0 15.0 15.0 15.0 15.0 15.0 15.0 15.0 15.0 15.0 15.0 15.0 15.0 15.0 15.0 15.0 15.0 15.0 15.0 15.0 15.0 15.0 15.0
15.0 15.0 15.0 15.0 15.0 15.0 15.0 15.0 15.0 15.0 15.0 15.0 15.0 15.0 15.0 15.0 15.0 15.0 15.0 15.0 15.0 15.0 15.0 15.0 15.0 15.0 15.0 15.0 15.0 15.0 15.0 15.0 15.0 15.0 15.0 15.0 15.0 15.0
15.0 15.0 15.0 15.0 15.0 15.0 15.0 15.0 15.0 15.0 15.0 15.0 15.0 15.0 15.0 15.0 15.0 15.0 15.0 15.0 15.0 15.0 15.0 15.0 15.0 15.0 15.0 15.0 15.0 15.0 15.0 15.0 15.0 6.4 15.0 15.0 15.0 15.0
15.0 8.7 15.0 15.0 15.0 15.0 15.0 15.0 15.0 14.8 15.0 15.0 15.0 15.0 15.0 15.0 15.0 15.0 0.3 15.0 1.2 8.0 15.0 15.0 15.0 15.0 15.0 15.0 15.0 15.0 15.0 15.0 15.0 15.0 15.0 15.0 15.0 14.8
15.0 14.9 15.0 12.1 15.0 15.0 15.0 15.0 15.0 15.0 15.0 15.0 15.0 15.0 15.0 15.0 15.0 1.0 8.1 15.0 15.0 15.0 15.0 15.0 15.0 15.0 15.0 15.0 15.0 15.0 15.0 15.0 15.0 15.0 2.2 15.0 6.2 0.3
15.0 15.0 15.0 15.0 15.0 15.0 15.0 15.0 15.0 15.0 15.0 15.0 15.0 15.0 15.0 15.0 15.0 8.5 8.5 0.2 15.0 15.0 15.0 6.8 11.1 5.3 15.0 15.0 15.0 15.0 15.0 15.0 15.0 0.8 1.0 0.2 3.5 0.1
3.0 15.0 15.0 15.0 15.0 15.0 15.0 2.8 2.9 0.0 15.0 15.0 15.0 15.0 15.0 15.0 2.5 15.0 0.1 6.2 14.5 0.0 0.0 0.1 0.0 0.0 0.0 0.0 7.6 15.0 15.0 15.0 15.0 1.4 15.0 12.7 8.3 0.6
15.0 15.0 15.0 15.0 15.0 15.0 15.0 15.0 0.0 0.0 0.0 0.0 0.0 0.0 0.0 0.1 14.7 15.0 15.0 13.7 13.8 0.1 0.0 0.1 0.1 0.0 0.1 0.0 0.0 1.7 15.0 15.0 15.0 0.4 0.1 14.3 15.0 15.0
15.0 15.0 15.0 15.0 15.0 15.0 15.0 0.6 0.0 0.0 0.1 0.0 0.0 0.0 0.0 0.0 0.0 0.0 0.0 0.1 0.2 6.2 0.7 0.1 0.0 5.9 0.2 0.1 0.0 0.0 6.9 13.4 12.1 10.9 0.1 0.1 12.8 11.2
15.0 15.0 15.0 15.0 15.0 15.0 15.0 15.0 15.0 0.4 0.0 0.0 0.0 0.0 0.0 0.0 0.0 0.0 0.0 0.0 0.0 0.0 0.0 9.1 0.0 0.0 0.0 0.7 0.2 0.4 0.1 12.5 0.0 0.1 0.1 0.0 0.0 0.1
15.0 14.7 15.0 15.0 15.0 15.0 15.0 15.0 15.0 2.0 0.0 0.0 0.0 0.0 0.0 0.1 0.0 0.0 0.1 13.4 0.0 0.1 12.4 15.0 11.3 0.1 0.3 0.2 0.3 5.6 0.4 0.4 0.1 0.0 0.0 0.1 0.1 0.0
15.0 15.0 15.0 15.0 15.0 15.0 15.0 15.0 15.0 15.0 15.0 15.0 15.0 15.0 15.0 15.0 15.0 15.0 15.0 15.0 15.0 9.7 15.0 15.0 15.0 15.0 0.1 7.6 12.2 4.8 8.9 0.3 0.0 0.0 0.0 0.1 0.1 0.0
15.0 15.0 15.0 15.0 11.8 8.3 15.0 15.0 15.0 15.0 15.0 15.0 15.0 15.0 15.0 15.0 15.0 15.0 15.0 15.0 15.0 15.0 15.0 15.0 15.0 15.0 15.0 0.2 5.0 3.8 4.8 0.6 0.1 0.1 0.1 0.1 0.1 0.1
13.0 12.7 2.9 1.3 2.3 15.0 15.0 15.0 15.0 15.0 15.0 15.0 15.0 15.0 15.0 15.0 15.0 15.0 15.0 15.0 15.0 15.0 15.0 15.0 15.0 0.1 0.4 15.0 6.3 0.7 0.4 0.3 0.1 0.1 0.1 0.2 0.1 0.1
0.3 0.1 0.1 9.6 15.0 15.0 15.0 15.0 15.0 15.0 15.0 15.0 15.0 15.0 15.0 15.0 15.0 15.0 15.0 15.0 15.0 15.0 15.0 15.0 15.0 15.0 12.3 1.2 3.5 0.1 0.2 0.1 0.1 0.1 0.1 0.1 0.1 0.1
0.1 0.3 11.9 15.0 15.0 15.0 15.0 15.0 15.0 15.0 15.0 15.0 15.0 15.0 15.0 15.0 15.0 15.0 15.0 15.0 15.0 15.0 15.0 15.0 14.1 15.0 3.8 1.1 0.6 0.1 0.0 0.2 0.2 0.1 0.1 0.1 0.1 0.1
6.5 7.6 15.0 15.0 15.0 15.0 15.0 15.0 7.5 15.0 10.7 8.2 15.0 7.9 0.0 15.0 15.0 15.0 15.0 15.0 15.0 15.0 15.0 15.0 15.0 15.0 15.0 14.9 1.9 0.2 0.1 0.1 0.2 0.2 0.1 0.2 0.1 0.1
13.4 15.0 15.0 15.0 15.0 15.0 14.2 0.3 15.0 15.0 13.0 11.6 0.5 0.0 0.0 14.7 15.0 15.0 15.0 15.0 15.0 15.0 13.7 15.0 14.6 11.6 14.7 14.6 0.6 0.2 0.1 0.1 0.2 0.1 0.2 0.3 0.2 0.1
15.0 15.0 15.0 15.0 15.0 15.0 15.0 15.0 15.0 14.7 15.0 15.0 15.0 15.0 0.0 13.5 15.0 15.0 15.0 15.0 15.0 15.0 15.0 4.9 6.5 15.0 10.6 8.4 11.4 0.6 0.1 0.1 0.3 0.3 0.1 0.3 1.0 1.4